Flag for Macedonia, Republic of Weather past 2 weeks in Skopje, Macedonia, Republic of

Now
66 °F

Sunny.


Feels Like: 66 °F
Forecast: 51 / 73 °F
Wind: 1 mph from North

Location: Skopje-Petrovec

Current Time: Oct 21, 2014 at 1:27:12 PM

Latest Report: Oct 21, 2014 at 1:00 PM


Visibility: 10 mi

Pressure: 29.92 "Hg

Humidity: 60%

Dew point: 52 °F

Location of SkopjeLocation

Historic Weather in Skopje — Graph

°F

Skopje temperature yesterday

Maximum temperature yesterday: 68 °F (at 3:30 PM)
Minimum temperature yesterday: 41 °F (at 3:30 AM)
Average temperature yesterday: 53 °F

Past Weeks' High & Low Weather Summary

 TemperatureHumidityPressure
High77 °F (Oct 11, 4:00 PM)100% (Oct 8, 4:30 AM)30.39 "Hg (Oct 8, 4:30 AM)
Low39 °F (Oct 21, 6:00 AM)35% (Oct 19, 3:30 PM)29.95 "Hg (Oct 14, 5:00 PM)
Average59 °F84%30.12 "Hg
* Reported Oct 6 12:00 Noon — Oct 21 12:30 PM, Skopje, Weather by CustomWeather, © 2014

Note: Actual official high and low records may vary slightly from our data, if they occured in-between our weather recording intervals... More about our weather records

Advertising

Skopje weather history for previous 24 hours

 ConditionsComfort  
Time TempWeatherWind HumidityBarometerVisibility
12:30 PM
Oct 21
66 °FSunny.1 mph60%29.95 "Hg10 mi
12:00 PM64 °FSunny.No wind60%29.95 "Hg10 mi
11:30 AM61 °FSunny.No wind68%29.98 "Hg10 mi
11:00 AM57 °FSunny.1 mph72%29.98 "Hg10 mi
10:30 AM55 °FSunny.No wind77%30.01 "Hg10 mi
10:00 AM52 °FClear.No wind82%30.01 "Hg5 mi
9:30 AM52 °FClear.No wind82%30.01 "Hg5 mi
9:00 AM48 °FClear.No wind87%30.04 "Hg4 mi
8:30 AM46 °FFog.No wind93%30.04 "Hg3 mi
8:00 AM43 °FFog.No wind93%30.04 "Hg2 mi
7:30 AM39 °FFog.No wind93%30.04 "Hg1 mi
7:00 AM39 °FFog.No wind93%30.04 "Hg1 mi
6:30 AM39 °FFog.No wind100%30.04 "Hg2 mi
6:00 AM39 °FFog.No wind100%30.04 "Hg2 mi
5:00 AM41 °FClear.No wind93%30.07 "Hg4 mi
4:30 AM41 °FFog.No wind100%30.07 "Hg3 mi
4:00 AM41 °FFog.No wind100%30.07 "Hg2 mi
3:30 AM41 °FFog.No wind93%30.07 "Hg2 mi
3:00 AM43 °FClear.No wind81%30.07 "Hg4 mi
2:30 AM45 °FFog.No wind93%30.09 "Hg2 mi
2:00 AM45 °FClear.No wind93%30.09 "Hg4 mi
1:30 AM45 °FClear.No wind93%30.09 "Hg4 mi
1:00 AM45 °FClear.No wind93%30.09 "Hg10 mi
12:30 AM46 °FClear.No wind93%30.09 "Hg10 mi
12:00 AM48 °FClear.No wind87%30.09 "Hg10 mi
11:30 PM
Oct 20
46 °FClear.No wind93%30.12 "Hg10 mi
11:00 PM46 °FClear.No wind93%30.12 "Hg10 mi
10:30 PM46 °FClear.No wind93%30.12 "Hg10 mi
10:00 PM48 °FClear.No wind87%30.12 "Hg10 mi
9:30 PM48 °FClear.2 mph87%30.12 "Hg10 mi
9:00 PM48 °FClear.No wind94%30.15 "Hg10 mi
8:30 PM48 °FClear.No wind100%30.12 "Hg10 mi
8:00 PM50 °FClear.No wind88%30.12 "Hg10 mi
7:30 PM52 °FClear.No wind82%30.12 "Hg10 mi
7:00 PM54 °FClear.2 mph77%30.12 "Hg10 mi
6:30 PM55 °FSunny.2 mph77%30.12 "Hg10 mi
6:00 PM57 °FSunny.2 mph77%30.12 "Hg10 mi
5:30 PM64 °FSunny.2 mph56%30.12 "Hg10 mi
5:00 PM68 °FSunny.No wind49%30.12 "Hg10 mi
4:30 PM68 °FSunny.No wind46%30.12 "Hg10 mi
4:00 PM68 °FSunny.No wind49%30.12 "Hg10 mi
3:30 PM68 °FSunny.No wind49%30.15 "Hg10 mi
3:00 PM66 °FSunny.No wind52%30.15 "Hg10 mi
2:30 PM66 °FSunny.No wind52%30.15 "Hg10 mi
2:00 PM64 °FSunny.No wind56%30.18 "Hg10 mi
1:30 PM64 °FSunny.No wind56%30.18 "Hg10 mi
1:00 PM63 °FSunny.No wind59%30.21 "Hg10 mi
Weather by CustomWeather, © 2014

See weather overviewHow to use our weather pages